TimeCST,TemperatureF,Dew PointF,Humidity,Sea Level PressureIn,VisibilityMPH,Wind Direction,Wind SpeedMPH,Gust SpeedMPH,PrecipitationIn,Events,Conditions,WindDirDegrees,DateUTC
12:15 AM,24.8,17.6,74,30.25,-9999.0,South,6.9,-,N/A,,Clear,170,2013-01-07 06:15:00
12:35 AM,24.8,17.6,74,30.25,-9999.0,South,5.8,-,N/A,,Clear,170,2013-01-07 06:35:00
12:55 AM,23.0,17.6,80,30.24,-9999.0,SSE,9.2,-,N/A,,Clear,160,2013-01-07 06:55:00
1:15 AM,24.8,19.4,80,30.24,-9999.0,South,8.1,-,N/A,,Clear,170,2013-01-07 07:15:00
1:35 AM,24.8,19.4,80,30.25,-9999.0,South,9.2,-,N/A,,Clear,170,2013-01-07 07:35:00
1:55 AM,24.8,19.4,80,30.25,-9999.0,South,10.4,-,N/A,,Clear,170,2013-01-07 07:55:00
2:15 AM,24.8,19.4,80,30.25,-9999.0,South,9.2,-,N/A,,Clear,170,2013-01-07 08:15:00
2:35 AM,24.8,19.4,80,30.25,-9999.0,SSE,9.2,-,N/A,,Clear,160,2013-01-07 08:35:00
2:55 AM,26.6,19.4,74,30.25,-9999.0,SSE,10.4,-,N/A,,Clear,160,2013-01-07 08:55:00
3:15 AM,26.6,21.2,80,30.25,-9999.0,South,11.5,-,N/A,,Clear,170,2013-01-07 09:15:00
3:35 AM,26.6,21.2,80,30.24,-9999.0,South,13.8,-,N/A,,Clear,170,2013-01-07 09:35:00
3:55 AM,26.6,21.2,80,30.24,-9999.0,South,12.7,-,N/A,,Clear,170,2013-01-07 09:55:00
4:15 AM,26.6,21.2,80,30.23,-9999.0,South,11.5,-,N/A,,Clear,170,2013-01-07 10:15:00
4:35 AM,26.6,21.2,80,30.23,-9999.0,South,11.5,-,N/A,,Clear,170,2013-01-07 10:35:00
4:55 AM,26.6,21.2,80,30.22,-9999.0,South,12.7,-,N/A,,Clear,170,2013-01-07 10:55:00
5:15 AM,26.6,21.2,80,30.21,-9999.0,South,12.7,-,N/A,,Clear,170,2013-01-07 11:15:00
5:35 AM,26.6,21.2,80,30.20,-9999.0,SSE,12.7,21.9,N/A,,Clear,160,2013-01-07 11:35:00
5:55 AM,26.6,19.4,74,30.20,-9999.0,South,11.5,-,N/A,,Clear,170,2013-01-07 11:55:00
6:15 AM,26.6,19.4,74,30.20,-9999.0,SSE,12.7,-,N/A,,Clear,160,2013-01-07 12:15:00
6:35 AM,28.4,19.4,69,30.20,-9999.0,SSE,12.7,-,N/A,,Clear,160,2013-01-07 12:35:00
6:55 AM,26.6,19.4,74,30.20,-9999.0,South,11.5,-,N/A,,Clear,170,2013-01-07 12:55:00
7:35 AM,26.6,19.4,74,30.20,-9999.0,South,10.4,-,N/A,,Clear,170,2013-01-07 13:35:00
7:55 AM,26.6,19.4,74,30.20,-9999.0,South,11.5,-,N/A,,Clear,170,2013-01-07 13:55:00
8:15 AM,26.6,19.4,74,30.19,-9999.0,South,11.5,-,N/A,,Clear,170,2013-01-07 14:15:00
8:35 AM,28.4,21.2,74,30.19,-9999.0,South,13.8,-,N/A,,Clear,170,2013-01-07 14:35:00
8:55 AM,30.2,21.2,69,30.18,-9999.0,South,15.0,-,N/A,,Clear,170,2013-01-07 14:55:00
9:15 AM,32.0,21.2,64,30.17,-9999.0,South,16.1,24.2,N/A,,Clear,170,2013-01-07 15:15:00
9:35 AM,32.0,23.0,69,30.17,-9999.0,South,15.0,20.7,N/A,,Clear,170,2013-01-07 15:35:00
9:55 AM,33.8,23.0,65,30.16,-9999.0,South,13.8,-,N/A,,Clear,170,2013-01-07 15:55:00
10:15 AM,35.6,23.0,60,30.16,-9999.0,South,16.1,23.0,N/A,,Clear,180,2013-01-07 16:15:00
10:35 AM,37.4,23.0,56,30.15,10.0,South,19.6,26.5,N/A,,Clear,180,2013-01-07 16:35:00
10:55 AM,39.2,23.0,52,30.16,10.0,South,15.0,21.9,N/A,,Clear,180,2013-01-07 16:55:00
11:15 AM,41.0,23.0,49,30.13,10.0,South,23.0,28.8,N/A,,Clear,180,2013-01-07 17:15:00
11:35 AM,41.0,23.0,49,30.12,10.0,South,19.6,26.5,N/A,,Clear,190,2013-01-07 17:35:00
11:55 AM,41.0,24.8,53,30.11,10.0,SSW,18.4,-,N/A,,Clear,200,2013-01-07 17:55:00
12:15 PM,42.8,24.8,49,30.10,10.0,SSW,19.6,24.2,N/A,,Clear,200,2013-01-07 18:15:00
12:35 PM,42.8,23.0,46,30.09,10.0,South,17.3,26.5,N/A,,Clear,190,2013-01-07 18:35:00
12:55 PM,42.8,23.0,46,30.08,10.0,SSW,18.4,24.2,N/A,,Clear,200,2013-01-07 18:55:00
1:15 PM,42.8,23.0,46,30.07,10.0,South,18.4,26.5,N/A,,Clear,190,2013-01-07 19:15:00
1:35 PM,42.8,24.8,49,30.06,10.0,South,19.6,24.2,N/A,,Clear,190,2013-01-07 19:35:00
1:55 PM,44.6,24.8,46,30.05,10.0,South,20.7,24.2,N/A,,Clear,180,2013-01-07 19:55:00
2:15 PM,44.6,24.8,46,30.05,10.0,South,15.0,23.0,N/A,,Clear,190,2013-01-07 20:15:00
2:35 PM,44.6,24.8,46,30.05,10.0,South,12.7,21.9,N/A,,Clear,190,2013-01-07 20:35:00
2:55 PM,44.6,24.8,46,30.05,10.0,South,16.1,-,N/A,,Clear,180,2013-01-07 20:55:00
3:15 PM,44.6,24.8,46,30.05,10.0,South,12.7,-,N/A,,Clear,180,2013-01-07 21:15:00
3:35 PM,42.8,24.8,49,30.05,10.0,South,13.8,-,N/A,,Clear,190,2013-01-07 21:35:00
3:55 PM,41.0,24.8,53,30.05,10.0,South,11.5,-,N/A,,Clear,180,2013-01-07 21:55:00
4:15 PM,41.0,24.8,53,30.05,10.0,South,12.7,-,N/A,,Clear,190,2013-01-07 22:15:00
4:35 PM,39.2,24.8,56,30.05,10.0,South,10.4,-,N/A,,Clear,180,2013-01-07 22:35:00
4:55 PM,39.2,24.8,56,30.04,10.0,South,8.1,-,N/A,,Clear,180,2013-01-07 22:55:00
5:15 PM,39.2,26.6,61,30.05,10.0,South,6.9,-,N/A,,Clear,190,2013-01-07 23:15:00
5:35 PM,37.4,26.6,65,30.05,10.0,South,6.9,-,N/A,,Clear,180,2013-01-07 23:35:00
5:55 PM,37.4,26.6,65,30.05,10.0,South,6.9,-,N/A,,Clear,170,2013-01-07 23:55:00
6:15 PM,37.4,26.6,65,30.05,10.0,South,8.1,-,N/A,,Clear,170,2013-01-08 00:15:00
6:35 PM,37.4,26.6,65,30.05,10.0,South,8.1,-,N/A,,Clear,170,2013-01-08 00:35:00
6:55 PM,37.4,26.6,65,30.05,10.0,South,9.2,-,N/A,,Clear,170,2013-01-08 00:55:00
7:15 PM,37.4,26.6,65,30.06,10.0,South,8.1,-,N/A,,Clear,170,2013-01-08 01:15:00
7:35 PM,37.4,28.4,70,30.06,10.0,South,8.1,-,N/A,,Clear,170,2013-01-08 01:35:00
7:55 PM,35.6,26.6,70,30.06,-9999.0,South,6.9,-,N/A,,Clear,180,2013-01-08 01:55:00
8:15 PM,35.6,26.6,70,30.05,-9999.0,South,6.9,-,N/A,,Clear,180,2013-01-08 02:15:00
8:35 PM,35.6,26.6,70,30.06,-9999.0,South,6.9,-,N/A,,Clear,170,2013-01-08 02:35:00
8:55 PM,35.6,26.6,70,30.05,-9999.0,South,6.9,-,N/A,,Clear,170,2013-01-08 02:55:00
9:15 PM,33.8,26.6,75,30.05,-9999.0,South,8.1,-,N/A,,Clear,170,2013-01-08 03:15:00
9:35 PM,35.6,26.6,70,30.06,-9999.0,South,8.1,-,N/A,,Clear,170,2013-01-08 03:35:00
9:55 PM,35.6,26.6,70,30.05,-9999.0,South,9.2,-,N/A,,Clear,170,2013-01-08 03:55:00
10:15 PM,35.6,26.6,70,30.05,-9999.0,South,8.1,-,N/A,,Clear,180,2013-01-08 04:15:00
10:35 PM,35.6,26.6,70,30.05,-9999.0,South,9.2,-,N/A,,Clear,180,2013-01-08 04:35:00
10:55 PM,35.6,26.6,70,30.05,-9999.0,South,9.2,-,N/A,,Clear,180,2013-01-08 04:55:00
11:15 PM,35.6,26.6,70,30.05,-9999.0,South,8.1,-,N/A,,Clear,190,2013-01-08 05:15:00
11:35 PM,35.6,26.6,70,30.05,-9999.0,South,6.9,-,N/A,,Clear,180,2013-01-08 05:35:00